CZ-2C R/B (49030 NORAD) Tracking and Keplerian Element Data

This shows tracking and keplerian element data for the satellite.

Feedback or suggestion? Click here.




ElementValue
Catalog49030
NameCZ-2C R/B
Epoch Orbit449
Epoch Day229.7569525
Epoch Year2021
RAAN93.5997
Inclination35.1321
Eccentricity0.0096015
Argument of Perigee306.6669
Mean Anonmoly52.525
Mean Motion15.12851461
Decay Rate4.51E-06
L11 49030U 21065E 21229.75695250 .00000451 00000-0 24479-4 0 9995
L22 49030 35.1321 93.5997 0096015 306.6669 52.5250 15.12851461 4492

Live tracking and technical data element details for CZ-2C R/B (NORAD 49030). CZ-2C R/B can be tracked NOW for your location showing map with azimuth and elevation plus other details from your city location.

Track the satellite on the map from your city or location and see movement details for azimuth, elevation, latitude, longitude, range, height, and movement on the map or in text.







IsCatalogInMostPopularTable: catalog: 49030, numindb: 14
Update: records affected: 1



GetName: 49030 CZ-2C R/B

Hit Count: updated at: Sun, 26 Sep 2021 16:57:30 GMT